Flag for Canada Weather past 2 weeks in Burlington, Ontario, Canada

Now
64 °F

Mild.


Feels Like: 64 °F
Forecast: 49 / 64 °F
Wind: 5 mph from West

Location: Burlington Piers

Current Time: Sep 16, 2014 at 8:26:43 PM

Latest Report: Sep 16, 2014 at 7:00 PM


Visibility: N/A

Pressure: 30.04 "Hg

Humidity: 47%

Dew point: 43 °F

Location of BurlingtonLocation

Historic Weather in Burlington — Graph

°F

Burlington temperature yesterday

Maximum temperature yesterday: 64 °F (at 1:00 PM)
Minimum temperature yesterday: 53 °F (at 8:00 AM)
Average temperature yesterday: 58 °F

Past Weeks' High & Low Weather Summary

 TemperatureHumidityPressure
High86 °F (Sep 5, 6:00 PM)92% (Sep 2, 3:00 PM)30.33 "Hg (Sep 2, 3:00 PM)
Low52 °F (Sep 12, 7:00 AM)34% (Sep 7, 9:00 PM)29.53 "Hg (Sep 11, 4:00 AM)
Average65 °F72%30.04 "Hg
* Reported Sep 1 7:00 PM — Sep 16 7:00 PM, Burlington, Weather by CustomWeather, © 2014

Note: Actual official high and low records may vary slightly from our data, if they occured in-between our weather recording intervals... More about our weather records

Advertising

Burlington weather history for previous 24 hours

 ConditionsComfort  
Time TempWeatherWind HumidityBarometerVisibility
7:00 PM
Sep 16
64 °FMild.5 mph47%30.04 "HgN/A
6:00 PM65 °FMild.7 mph42%30.03 "HgN/A
5:00 PM65 °FMild.6 mph41%30.03 "HgN/A
4:00 PM65 °FMild.6 mph43%30.04 "HgN/A
3:00 PM65 °FMild.7 mph38%30.05 "HgN/A
2:00 PM64 °FMild.6 mph40%30.06 "HgN/A
1:00 PM63 °FMild.7 mph46%30.07 "HgN/A
12:00 PM61 °FRefreshingly cool.7 mph52%30.09 "HgN/A
11:00 AM59 °FRefreshingly cool.6 mph56%30.10 "HgN/A
10:00 AM58 °FCool.8 mph63%30.11 "HgN/A
9:00 AM55 °FCool.6 mph75%30.10 "HgN/A
8:00 AM54 °FCool.8 mph79%30.09 "HgN/A
7:00 AM55 °FCool.5 mph80%30.08 "HgN/A
6:00 AM55 °FCool.5 mph77%30.06 "HgN/A
5:00 AM55 °FCool.3 mph84%30.05 "HgN/A
4:00 AM56 °FCool.3 mph81%30.05 "HgN/A
3:00 AM56 °FCool.5 mph80%30.04 "HgN/A
2:00 AM57 °FCool.5 mph83%30.04 "HgN/A
1:00 AM57 °FCool.5 mph84%30.03 "HgN/A
12:00 AM57 °FCool.5 mph87%30.05 "HgN/A
11:00 PM
Sep 15
57 °FCool.5 mph87%30.06 "HgN/A
10:00 PM58 °FCool.3 mph85%30.06 "HgN/A
9:00 PM58 °FCool.3 mph85%30.06 "HgN/A
8:00 PM58 °FCool.3 mph86%30.05 "HgN/A
Weather by CustomWeather, © 2014

See weather overviewHow to use our weather pages